Concordia, KS

12:32 AM CST on December 11, 2019 (GMT -0600)
Blosser Municipal

Weather History for KCNK - October, 2019

Change the Weather History Date:

Wednesday, October 2, 2019

  Actual Average Record
Temperature  
Mean Temperature 57 °F 61 °F  
Max Temperature 60 °F 73 °F 95 °F (1938)
Min Temperature 53 °F 49 °F 32 °F (2004)
Degree Days  
Heating Degree Days 8 6  
Month to date heating degree days 8 12  
Since 1 July heating degree days 11 85  
Cooling Degree Days 0 2  
Month to date cooling degree days 6 4  
Year to date cooling degree days 1654 1330  
Growing Degree Days 7 (Base 50)    
Moisture  
Dew Point 53 °F    
Average Humidity 83    
Maximum Humidity 93    
Minimum Humidity 72    
Precipitation  
Precipitation 0.11 in 0.09 in 1.66 in (1907)
Month to date precipitation 0.58 0.17  
Year to date precipitation 31.60 24.18  
Snow  
Snow 0.00 in 0.00 in T in (1907)
Month to date snowfall 0.0 0.0  
Year to date snowfall 32.3 13.7  
Since 1 July snowfall 0.0 0.0  
Snow Depth 0.00 in    
Sea Level Pressure  
Sea Level Pressure 29.97 in    
Wind  
Wind Speed 9 mph (North)    
Max Wind Speed 20 mph    
Max Gust Speed 29 mph    
Visibility 9 miles    
Events Rain    
T = Trace of Precipitation, MM = Missing Value Source: NWS Daily Summary

Daily Weather History Graph

Daily Weather History Graph

Search for Another Location

Airport or City:

Astronomy

Oct. 02, 2019 Rise Set
Actual Time 7:27 AM CDT 7:11 PM CDT
Civil Twilight 7:00 AM CDT 7:38 PM CDT
Nautical Twilight 6:29 AM CDT 8:09 PM CDT
Astronomical Twilight 5:58 AM CDT 8:41 PM CDT
Moon 11:53 AM CDT (10/2) 10:07 PM CDT (10/2)
Length of Visible Light 12h 37m
Length of Day
11h 44m
Waxing Crescent, 20% of the Moon is Illuminated
Oct 2
Waxing Crescent
Oct 5
First Quarter
Oct 13
Full
Oct 21
Last Quarter
Oct 27
New

Hourly Weather History & Observations

Time (CDT) Temp. Dew Point Humidity Pressure Visibility Wind Dir Wind Speed Gust Speed Precip Events Conditions
12:55 AM 55.9 °F 54.0 °F 93% 29.91 in 10.0 mi North 9.2 mph - N/A   Overcast
1:48 AM 55.9 °F 54.0 °F 93% 29.95 in 10.0 mi NNE 8.1 mph - N/A   Overcast
1:55 AM 55.9 °F 53.1 °F 90% 29.92 in 10.0 mi NNE 10.4 mph - N/A   Overcast
2:55 AM 55.0 °F 52.0 °F 89% 29.95 in 10.0 mi North 10.4 mph - 0.00 in   Overcast
3:08 AM 55.0 °F 52.0 °F 89% 29.97 in 10.0 mi NNE 12.7 mph - N/A   Overcast
3:21 AM 54.0 °F 52.0 °F 93% 29.97 in 10.0 mi NNE 8.1 mph - 0.00 in Rain Light Rain
3:55 AM 54.0 °F 52.0 °F 93% 29.94 in 8.0 mi NNE 8.1 mph - 0.01 in Rain Light Rain
4:28 AM 54.0 °F 52.0 °F 93% 29.96 in 10.0 mi NNE 11.5 mph - 0.00 in   Overcast
4:36 AM 54.0 °F 52.0 °F 93% 29.95 in 10.0 mi NNE 9.2 mph - 0.00 in   Overcast
4:55 AM 54.0 °F 52.0 °F 93% 29.93 in 10.0 mi NE 9.2 mph - 0.01 in   Overcast
5:55 AM 54.0 °F 52.0 °F 93% 29.92 in 10.0 mi ENE 6.9 mph - N/A   Overcast
6:35 AM 54.0 °F 53.1 °F 97% 29.94 in 10.0 mi ENE 6.9 mph - 0.03 in Rain Light Rain
6:43 AM 54.0 °F 53.1 °F 97% 29.94 in 10.0 mi ENE 6.9 mph - 0.04 in Rain Light Rain
6:53 AM 55.4 °F 53.6 °F 94% 29.94 in 10.0 mi ENE 4.6 mph - 0.04 in Rain Light Rain
6:55 AM 55.0 °F 53.1 °F 93% 29.93 in 10.0 mi ENE 5.8 mph - 0.04 in Rain Light Rain
7:08 AM 55.0 °F 53.1 °F 93% 29.94 in 10.0 mi ENE 6.9 mph - 0.00 in Rain Light Rain
7:48 AM 55.0 °F 53.1 °F 93% 29.94 in 10.0 mi ENE 6.9 mph - 0.01 in Rain Light Rain
7:55 AM 55.0 °F 53.1 °F 93% 29.93 in 10.0 mi ENE 4.6 mph - 0.01 in Rain Light Rain
8:29 AM 55.9 °F 54.0 °F 93% 29.94 in 10.0 mi NE 5.8 mph - 0.00 in   Overcast
8:55 AM 55.9 °F 54.0 °F 93% 29.95 in 10.0 mi NNE 4.6 mph - 0.01 in Rain Light Rain
9:52 AM 55.4 °F 53.6 °F 94% 29.97 in 2.5 mi North 5.8 mph - 0.00 in   Overcast
9:55 AM 55.9 °F 54.0 °F 93% 29.95 in 2.5 mi North 6.9 mph - 0.00 in   Overcast
10:07 AM 55.9 °F 54.0 °F 93% 29.95 in 3.0 mi NE 6.9 mph - N/A   Overcast
10:55 AM 55.9 °F 54.0 °F 93% 29.96 in 6.0 mi NE 4.6 mph - 0.02 in Rain Light Rain
11:55 AM 57.0 °F 54.0 °F 89% 29.96 in 10.0 mi NNE 4.6 mph - 0.01 in   Overcast
12:24 PM 57.0 °F 55.0 °F 93% 29.96 in 5.0 mi North 8.1 mph - N/A   Overcast
12:55 PM 57.9 °F 55.0 °F 90% 29.96 in 10.0 mi North 5.8 mph - N/A   Overcast
1:11 PM 57.9 °F 55.0 °F 90% 29.96 in 10.0 mi NNW 8.1 mph - N/A   Overcast
1:55 PM 57.9 °F 55.9 °F 93% 29.95 in 10.0 mi NNW 8.1 mph - N/A   Overcast
2:55 PM 59.0 °F 55.9 °F 90% 29.96 in 10.0 mi NNW 6.9 mph - N/A   Overcast
3:46 PM 59.0 °F 55.0 °F 87% 29.97 in 10.0 mi NW 5.8 mph - N/A   Overcast
3:55 PM 59.0 °F 55.0 °F 87% 29.96 in 10.0 mi NW 8.1 mph - N/A   Overcast
4:55 PM 59.0 °F 55.0 °F 87% 29.97 in 10.0 mi NNW 8.1 mph - N/A   Overcast
5:42 PM 60.1 °F 55.0 °F 83% 29.98 in 10.0 mi NW 9.2 mph - N/A   Overcast
5:55 PM 59.0 °F 55.0 °F 87% 29.98 in 10.0 mi NNW 9.2 mph - N/A   Overcast
6:26 PM 59.0 °F 54.0 °F 83% 29.99 in 10.0 mi NNW 11.5 mph - N/A   Overcast
6:39 PM 57.9 °F 54.0 °F 87% 30.00 in 10.0 mi NNW 11.5 mph 24.2 mph N/A   Overcast
6:55 PM 57.9 °F 53.1 °F 84% 30.00 in 10.0 mi NNW 11.5 mph - N/A   Overcast
7:55 PM 57.9 °F 53.1 °F 84% 30.04 in 10.0 mi NNW 10.4 mph - N/A   Overcast
8:55 PM 57.0 °F 52.0 °F 83% 30.06 in 10.0 mi NNW 10.4 mph 20.7 mph N/A   Overcast
9:55 PM 55.9 °F 50.0 °F 80% 30.09 in 10.0 mi NNW 16.1 mph 25.3 mph N/A   Overcast
10:55 PM 55.0 °F 46.9 °F 74% 30.11 in 10.0 mi NNW 17.3 mph 26.5 mph N/A   Overcast
11:55 PM 54.0 °F 46.0 °F 75% 30.13 in 10.0 mi NNW 17.3 mph 27.6 mph N/A   Overcast